Regional Weather Roundup
Issued by NWS

Home | Current Version | Previous Version | Graphics & Text | Print | Product List | Glossary Off
Versions: 1 2 3 4 5 6 7 8 9 10 11 12 13 14 15 16 17 18 19 20 21 22 23 24 25 26 27 28 29 30 31 32 33 34 35 36 37 38 39 40 41 42 43 44 45 46 47 48 49 50

000
ASUS43 KLSX 281410
RWRMO

WEATHER SUMMARY FOR MISSOURI
NATIONAL WEATHER SERVICE SPRINGFIELD MO
900 AM CDT SAT MAY 28 2016

NOTE: "FAIR" INDICATES FEW OR NO CLOUDS BELOW 12,000 FEET WITH NO
       SIGNIFICANT WEATHER AND/OR OBSTRUCTIONS TO VISIBILITY.
       CURRENT SKY AND/OR WEATHER CONDITIONS ARE NOT AVAILABLE FOR
       CHILLICOTHE AND FARMINGTON.

MOZ001>031-035>038-043-044-053-054-281500-
...NORTHERN AND WESTERN MISSOURI...

CITY           SKY/WX    TMP DP  RH WIND       PRES   REMARKS
KANSAS CTY INT PTSUNNY   65  61  87 S14       29.79R
KANSAS C DTWN  CLOUDY    66  61  84 S13       29.80R
LEE`S SUMMIT   CLOUDY    66  62  87 S14       29.82R
ST JOSEPH      PTSUNNY   65  62  90 S13       29.77S
CHILLICOTHE      N/A     68  64  87 S8        29.82R
KIRKSVILLE     SUNNY     69  63  81 S13       29.84S

$$
MOZ066>068-077>081-088>096-101>105-281500-
...SOUTHWEST MISSOURI...

CITY           SKY/WX    TMP DP  RH WIND       PRES   REMARKS
SPRINGFIELD    SUNNY     69  62  78 S14       29.91R
JOPLIN         CLOUDY    66  62  87 SW15      29.90R
BRANSON        PTSUNNY   66  63  88 E5        29.93R

$$
MOZ032>034-039>042-045>050-055>058-069>072-281500-
...CENTRAL MISSOURI...

CITY           SKY/WX    TMP DP  RH WIND       PRES   REMARKS
COLUMBIA       MOSUNNY   70  65  84 S13       29.88R
JEFFERSON CITY CLOUDY    71  64  78 S8        29.87R
ROLLA          MOSUNNY   70  64  81 S12       29.90R
SEDALIA        CLOUDY    71  63  75 S14       29.85R
WHITEMAN AFB   CLOUDY    69  66  91 SW21      29.83R
WARRENSBURG    CLOUDY    66  63  88 S14       29.83R

$$
MOZ051-052-059>065-281500-
...EAST CENTRAL MISSOURI...

CITY           SKY/WX    TMP DP  RH WIND       PRES   REMARKS
ST LOUIS INTL  CLOUDY    73  65  75 S15       29.93R
SPIRIT OF STL  CLOUDY    72  66  81 S8        29.90R
ST CHARLES     CLOUDY    71  67  87 S10       29.91R

$$
MOZ072>076-082>087-097>100-106>115-281500-
...SOUTH CENTRAL AND SOUTHEAST MISSOURI...

CITY           SKY/WX    TMP DP  RH WIND       PRES   REMARKS
CAPE GIRARDEAU CLOUDY    71  67  87 S9        29.97R
FARMINGTON     MOSUNNY   71  65  81 S17       29.97R
POPLAR BLUFF   CLOUDY    71  67  87 S9        29.97R
WEST PLAINS    MOSUNNY   69  62  78 S8        29.96R

$$



USA.gov is the U.S. government's official web portal to all federal, state and local government web resources and services.